Location: Gand�
(15.0971°N, 12.6564°W)
Time: 02:00:50
(UTC+00:00)

Meteor PRIRODA - Pass Details

Date: 07 August 2020
Orbit: 491 x 510 km, 97.6° (Epoch: 23 September)

Event Time Altitude Azimuth Distance (km) Brightness Sun altitude
Rises 05:50:51 0° 7° (N) 2,608 7.7 -10.9°
Reaches altitude 10° 05:52:57 10° 5° (N) 1,723 6.7 -10.4°
Maximum altitude 05:56:38 69° 282° (WNW) 546 3.6 -9.6°
Drops below altitude 10° 06:00:20 10° 198° (SSW) 1,721 6.0 -8.7°
Sets 06:02:25 0° 196° (SSW) 2,604 6.9 -8.2°
